User: anonymous   Login
Location: Unspecified
(0.0000°N, 0.0000°E)
Time: 18:52:29
(UTC+00:00)
Language:

UWE-2 - Orbit

View from above orbital plane
View from above orbital plane
View from above satellite
View from above satellite

Ground track
Ground track

The orbit data is extracted from the following two-line orbital elements,

1 35934U 09051D   17145.33585162 +.00000100 +00000-0 +33794-4 0  9991
2 35934 098.4868 282.1461 0006075 348.6366 011.4692 14.55650348406933
Epoch (UTC): 25 May 2017 08:03:37
Eccentricity: 0.0006075
inclination: 98.4868°
perigee height: 703 km
apogee height: 711 km
right ascension of ascending node: 282.1461°
argument of perigee: 348.6366°
revolutions per day: 14.55650348
mean anomaly at epoch: 11.4692°
orbit number at epoch: 40693

The dashed part of the orbit path shows where the satellite is in the earth's shadow,  

DLR